Time,TemperatureF,DewpointF,PressureIn,WindDirection,WindDirectionDegrees,WindSpeedMPH,WindSpeedGustMPH,Humidity,HourlyPrecipIn,Conditions,Clouds,dailyrainin,SoftwareType,DateUTC
2013-03-16 00:02:00,34.0,24.0,29.75,WNW,300,2.0,8.0,66,0.00,,,0.00,,2013-03-16 04:02:00,
2013-03-16 00:13:00,34.0,24.0,29.75,WNW,300,2.0,8.0,66,0.00,,,0.00,,2013-03-16 04:13:00,
2013-03-16 00:23:00,34.0,23.0,29.75,WNW,291,1.0,9.0,64,0.00,,,0.00,,2013-03-16 04:23:00,
2013-03-16 00:33:00,34.0,23.0,29.75,WNW,283,2.0,10.0,64,0.00,,,0.00,,2013-03-16 04:33:00,
2013-03-16 00:43:00,34.0,23.0,29.75,WNW,283,2.0,10.0,64,0.00,,,0.00,,2013-03-16 04:43:00,
2013-03-16 00:53:00,34.0,23.0,29.74,West,277,2.0,8.0,64,0.00,,,0.00,,2013-03-16 04:53:00,
2013-03-16 01:02:00,34.0,23.0,29.74,West,279,3.0,8.0,63,0.00,,,0.00,,2013-03-16 05:02:00,
2013-03-16 01:12:00,34.0,23.0,29.74,West,279,3.0,8.0,63,0.00,,,0.00,,2013-03-16 05:12:00,
2013-03-16 01:22:00,34.0,22.0,29.74,SW,235,5.0,13.0,61,0.00,,,0.00,,2013-03-16 05:22:00,
2013-03-16 01:32:00,34.0,22.0,29.74,SW,223,3.0,8.0,60,0.00,,,0.00,,2013-03-16 05:32:00,
2013-03-16 01:42:00,34.0,22.0,29.74,SW,223,3.0,8.0,60,0.00,,,0.00,,2013-03-16 05:42:00,
2013-03-16 01:53:00,34.0,22.0,29.75,NW,306,2.0,7.0,61,0.00,,,0.00,,2013-03-16 05:53:00,
2013-03-16 02:02:00,34.0,22.0,29.75,North,350,3.0,12.0,61,0.00,,,0.00,,2013-03-16 06:02:00,
2013-03-16 02:12:00,34.0,22.0,29.75,North,350,3.0,12.0,61,0.00,,,0.00,,2013-03-16 06:12:00,
2013-03-16 02:22:00,33.0,21.0,29.76,NW,305,2.0,5.0,60,0.00,,,0.00,,2013-03-16 06:22:00,
2013-03-16 02:32:00,33.0,22.0,29.76,North,350,1.0,3.0,64,0.00,,,0.00,,2013-03-16 06:32:00,
2013-03-16 02:42:00,33.0,22.0,29.76,North,350,1.0,3.0,64,0.00,,,0.00,,2013-03-16 06:42:00,
2013-03-16 02:52:00,33.0,25.0,29.77,WNW,287,3.0,6.0,71,0.00,,,0.00,,2013-03-16 06:52:00,
2013-03-16 03:02:00,33.0,25.0,29.78,NNW,327,0.0,4.0,72,0.00,,,0.00,,2013-03-16 07:02:00,
2013-03-16 03:12:00,33.0,25.0,29.78,NNW,327,0.0,4.0,72,0.00,,,0.00,,2013-03-16 07:12:00,
2013-03-16 03:22:00,33.0,25.0,29.78,NW,322,2.0,5.0,71,0.00,,,0.00,,2013-03-16 07:22:00,
2013-03-16 03:32:00,33.0,25.0,29.78,NW,319,0.0,3.0,71,0.00,,,0.00,,2013-03-16 07:32:00,
2013-03-16 03:42:00,33.0,25.0,29.78,NW,319,0.0,3.0,71,0.00,,,0.00,,2013-03-16 07:42:00,
2013-03-16 03:52:00,32.0,23.0,29.78,NW,325,0.0,5.0,70,0.00,,,0.00,,2013-03-16 07:52:00,
2013-03-16 04:03:00,32.0,23.0,29.78,NW,325,1.0,4.0,69,0.00,,,0.00,,2013-03-16 08:03:00,
2013-03-16 04:12:00,32.0,23.0,29.78,NW,325,1.0,4.0,69,0.00,,,0.00,,2013-03-16 08:12:00,
2013-03-16 04:23:00,32.0,23.0,29.78,NNE,18,1.0,4.0,68,0.00,,,0.00,,2013-03-16 08:23:00,
2013-03-16 04:32:00,32.0,20.0,29.79,NNW,338,2.0,9.0,62,0.00,,,0.00,,2013-03-16 08:32:00,
2013-03-16 04:42:00,32.0,20.0,29.79,NNW,338,2.0,9.0,62,0.00,,,0.00,,2013-03-16 08:42:00,
2013-03-16 04:52:00,31.0,19.0,29.79,NNW,342,0.0,8.0,60,0.00,,,0.00,,2013-03-16 08:52:00,
2013-03-16 05:02:00,31.0,18.0,29.80,North,360,1.0,7.0,59,0.00,,,0.00,,2013-03-16 09:02:00,
2013-03-16 05:12:00,31.0,18.0,29.80,North,360,1.0,7.0,59,0.00,,,0.00,,2013-03-16 09:12:00,
2013-03-16 05:22:00,30.0,17.0,29.80,NNW,332,1.0,4.0,58,0.00,,,0.00,,2013-03-16 09:22:00,
2013-03-16 05:33:00,30.0,19.0,29.81,NNW,343,2.0,7.0,62,0.00,,,0.00,,2013-03-16 09:33:00,
2013-03-16 05:42:00,30.0,19.0,29.81,NNW,343,2.0,7.0,62,0.00,,,0.00,,2013-03-16 09:42:00,
2013-03-16 05:53:00,29.0,19.0,29.82,NW,306,1.0,4.0,66,0.00,,,0.00,,2013-03-16 09:53:00,
2013-03-16 06:03:00,29.0,19.0,29.82,North,5,1.0,4.0,67,0.00,,,0.00,,2013-03-16 10:03:00,
2013-03-16 06:12:00,29.0,19.0,29.82,North,5,1.0,4.0,67,0.00,,,0.00,,2013-03-16 10:12:00,
2013-03-16 06:23:00,28.0,19.0,29.83,North,355,0.0,4.0,69,0.00,,,0.00,,2013-03-16 10:23:00,
2013-03-16 06:32:00,28.0,18.0,29.83,NE,44,1.0,5.0,67,0.00,,,0.00,,2013-03-16 10:32:00,
2013-03-16 06:42:00,28.0,18.0,29.83,NE,44,1.0,5.0,67,0.00,,,0.00,,2013-03-16 10:42:00,
2013-03-16 06:53:00,28.0,18.0,29.83,North,360,2.0,4.0,66,0.00,,,0.00,,2013-03-16 10:53:00,
2013-03-16 07:03:00,27.0,17.0,29.84,North,360,1.0,4.0,65,0.00,,,0.00,,2013-03-16 11:03:00,
2013-03-16 07:12:00,27.0,17.0,29.84,North,360,1.0,4.0,65,0.00,,,0.00,,2013-03-16 11:12:00,
2013-03-16 07:22:00,27.0,16.0,29.85,NNW,338,1.0,6.0,64,0.00,,,0.00,,2013-03-16 11:22:00,
2013-03-16 07:32:00,27.0,16.0,29.85,NW,325,1.0,5.0,64,0.00,,,0.00,,2013-03-16 11:32:00,
2013-03-16 07:43:00,27.0,16.0,29.85,NW,325,1.0,5.0,64,0.00,,,0.00,,2013-03-16 11:43:00,
2013-03-16 07:53:00,27.0,16.0,29.85,NNW,331,1.0,4.0,64,0.00,,,0.00,,2013-03-16 11:53:00,
2013-03-16 08:02:00,27.0,16.0,29.85,North,355,1.0,4.0,64,0.00,,,0.00,,2013-03-16 12:02:00,
2013-03-16 08:12:00,27.0,16.0,29.85,North,355,1.0,4.0,64,0.00,,,0.00,,2013-03-16 12:12:00,
2013-03-16 08:22:00,27.0,16.0,29.85,North,9,1.0,3.0,62,0.00,,,0.00,,2013-03-16 12:22:00,
2013-03-16 08:32:00,28.0,16.0,29.85,NNW,331,3.0,6.0,60,0.00,,,0.00,,2013-03-16 12:32:00,
2013-03-16 08:42:00,28.0,16.0,29.85,NNW,331,3.0,6.0,60,0.00,,,0.00,,2013-03-16 12:42:00,
2013-03-16 08:53:00,29.0,17.0,29.86,NW,324,1.0,5.0,60,0.00,,,0.00,,2013-03-16 12:53:00,
2013-03-16 09:02:00,29.0,16.0,29.86,NNW,337,0.0,6.0,58,0.00,,,0.00,,2013-03-16 13:02:00,
2013-03-16 09:12:00,29.0,16.0,29.86,NNW,337,0.0,6.0,58,0.00,,,0.00,,2013-03-16 13:12:00,
2013-03-16 09:22:00,29.0,16.0,29.86,NW,312,1.0,5.0,57,0.00,,,0.00,,2013-03-16 13:22:00,
2013-03-16 09:32:00,30.0,17.0,29.87,North,355,0.0,3.0,57,0.00,,,0.00,,2013-03-16 13:32:00,
2013-03-16 09:42:00,30.0,17.0,29.87,North,355,0.0,3.0,57,0.00,,,0.00,,2013-03-16 13:42:00,
2013-03-16 09:53:00,30.0,16.0,29.86,North,11,1.0,4.0,55,0.00,,,0.00,,2013-03-16 13:53:00,
2013-03-16 10:02:00,30.0,15.0,29.86,North,355,2.0,5.0,54,0.00,,,0.00,,2013-03-16 14:02:00,
2013-03-16 10:12:00,30.0,15.0,29.86,North,355,2.0,5.0,54,0.00,,,0.00,,2013-03-16 14:12:00,
2013-03-16 10:22:00,31.0,17.0,29.85,North,360,1.0,4.0,56,0.00,,,0.00,,2013-03-16 14:22:00,
2013-03-16 10:32:00,32.0,17.0,29.85,NNW,341,0.0,2.0,53,0.00,,,0.00,,2013-03-16 14:32:00,
2013-03-16 10:42:00,32.0,17.0,29.85,NNW,341,0.0,2.0,53,0.00,,,0.00,,2013-03-16 14:42:00,
2013-03-16 10:52:00,32.0,17.0,29.85,NNW,340,1.0,4.0,54,0.00,,,0.00,,2013-03-16 14:52:00,
2013-03-16 11:03:00,32.0,16.0,29.84,NNW,340,1.0,4.0,52,0.00,,,0.00,,2013-03-16 15:03:00,
2013-03-16 11:13:00,32.0,16.0,29.84,NNW,340,1.0,4.0,52,0.00,,,0.00,,2013-03-16 15:13:00,
2013-03-16 11:23:00,34.0,17.0,29.83,ESE,114,2.0,5.0,49,0.00,,,0.00,,2013-03-16 15:23:00,
2013-03-16 11:33:00,34.0,16.0,29.83,ENE,73,2.0,5.0,48,0.00,,,0.00,,2013-03-16 15:33:00,
2013-03-16 11:43:00,34.0,16.0,29.83,ENE,73,2.0,5.0,48,0.00,,,0.00,,2013-03-16 15:43:00,
2013-03-16 11:53:00,34.0,17.0,29.83,NNE,13,1.0,3.0,50,0.00,,,0.00,,2013-03-16 15:53:00,
2013-03-16 12:03:00,37.0,20.0,29.83,NNW,342,0.0,1.0,50,0.00,,,0.00,,2013-03-16 16:03:00,
2013-03-16 12:12:00,37.0,20.0,29.83,NNW,342,0.0,1.0,50,0.00,,,0.00,,2013-03-16 16:12:00,
2013-03-16 12:23:00,39.0,20.0,29.82,SW,225,1.0,4.0,46,0.00,,,0.00,,2013-03-16 16:23:00,
2013-03-16 12:33:00,38.0,19.0,29.82,NNE,13,2.0,4.0,45,0.00,,,0.00,,2013-03-16 16:33:00,
2013-03-16 12:42:00,38.0,19.0,29.82,NNE,13,2.0,4.0,45,0.00,,,0.00,,2013-03-16 16:42:00,
2013-03-16 12:53:00,39.0,19.0,29.81,NNW,328,1.0,5.0,45,0.00,,,0.00,,2013-03-16 16:53:00,
2013-03-16 13:03:00,40.0,19.0,29.82,NW,309,2.0,6.0,43,0.00,,,0.00,,2013-03-16 17:03:00,
2013-03-16 13:13:00,40.0,19.0,29.82,NW,309,2.0,6.0,43,0.00,,,0.00,,2013-03-16 17:13:00,
2013-03-16 13:23:00,39.0,17.0,29.81,NW,325,2.0,6.0,41,0.00,,,0.00,,2013-03-16 17:23:00,
2013-03-16 13:32:00,39.0,19.0,29.81,NNW,340,0.0,5.0,45,0.00,,,0.00,,2013-03-16 17:32:00,
2013-03-16 13:42:00,39.0,19.0,29.81,NNW,340,0.0,5.0,45,0.00,,,0.00,,2013-03-16 17:42:00,
2013-03-16 13:53:00,38.0,18.0,29.80,NW,323,2.0,4.0,44,0.00,,,0.00,,2013-03-16 17:53:00,
2013-03-16 14:02:00,37.0,19.0,29.80,NNW,344,1.0,3.0,48,0.00,,,0.00,,2013-03-16 18:02:00,
2013-03-16 14:13:00,37.0,19.0,29.80,NNW,344,1.0,3.0,48,0.00,,,0.00,,2013-03-16 18:13:00,
2013-03-16 14:23:00,38.0,21.0,29.80,ENE,60,0.0,6.0,49,0.00,,,0.00,,2013-03-16 18:23:00,
2013-03-16 14:33:00,37.0,19.0,29.80,SE,125,1.0,4.0,48,0.00,,,0.00,,2013-03-16 18:33:00,
2013-03-16 14:43:00,37.0,19.0,29.80,SE,125,1.0,4.0,48,0.00,,,0.00,,2013-03-16 18:43:00,
2013-03-16 14:53:00,36.0,21.0,29.80,NNW,340,0.0,3.0,54,0.00,,,0.00,,2013-03-16 18:53:00,
2013-03-16 15:02:00,36.0,23.0,29.80,WNW,296,1.0,4.0,58,0.00,,,0.00,,2013-03-16 19:02:00,
2013-03-16 15:12:00,36.0,23.0,29.80,WNW,296,1.0,4.0,58,0.00,,,0.00,,2013-03-16 19:12:00,
2013-03-16 15:22:00,35.0,23.0,29.80,NNE,33,1.0,6.0,62,0.00,,,0.00,,2013-03-16 19:22:00,
2013-03-16 15:32:00,34.0,25.0,29.80,SW,215,1.0,2.0,70,0.00,,,0.00,,2013-03-16 19:32:00,
2013-03-16 15:42:00,34.0,25.0,29.80,SW,215,1.0,2.0,70,0.00,,,0.00,,2013-03-16 19:42:00,
2013-03-16 15:53:00,34.0,27.0,29.80,WSW,254,0.0,1.0,74,0.00,,,0.00,,2013-03-16 19:53:00,
2013-03-16 16:02:00,33.0,26.0,29.80,SW,217,0.0,3.0,75,0.00,,,0.00,,2013-03-16 20:02:00,
2013-03-16 16:12:00,33.0,26.0,29.80,SW,217,0.0,3.0,75,0.00,,,0.00,,2013-03-16 20:12:00,
2013-03-16 16:22:00,32.0,26.0,29.79,SSW,211,1.0,3.0,79,0.00,,,0.00,,2013-03-16 20:22:00,
2013-03-16 16:32:00,32.0,26.0,29.78,WSW,242,0.0,3.0,79,0.00,,,0.00,,2013-03-16 20:32:00,
2013-03-16 16:42:00,32.0,26.0,29.78,WSW,242,0.0,3.0,79,0.00,,,0.00,,2013-03-16 20:42:00,
2013-03-16 16:52:00,31.0,25.0,29.78,SW,234,0.0,2.0,79,0.00,,,0.00,,2013-03-16 20:52:00,
2013-03-16 17:02:00,32.0,27.0,29.78,SW,234,0.0,2.0,81,0.01,,,0.01,,2013-03-16 21:02:00,
2013-03-16 17:12:00,32.0,27.0,29.78,SW,234,0.0,2.0,81,0.01,,,0.01,,2013-03-16 21:12:00,
2013-03-16 17:22:00,32.0,27.0,29.78,WSW,255,0.0,2.0,81,0.01,,,0.01,,2013-03-16 21:22:00,
2013-03-16 17:33:00,32.0,27.0,29.78,SW,234,0.0,3.0,80,0.01,,,0.01,,2013-03-16 21:33:00,
2013-03-16 17:43:00,32.0,27.0,29.78,SW,234,0.0,3.0,80,0.01,,,0.01,,2013-03-16 21:43:00,
2013-03-16 17:53:00,31.0,26.0,29.79,WSW,247,0.0,1.0,81,0.01,,,0.01,,2013-03-16 21:53:00,
2013-03-16 18:03:00,31.0,26.0,29.79,WSW,248,0.0,1.0,81,0.00,,,0.01,,2013-03-16 22:03:00,
2013-03-16 18:13:00,31.0,26.0,29.79,WSW,248,0.0,1.0,81,0.00,,,0.01,,2013-03-16 22:13:00,
2013-03-16 18:23:00,31.0,26.0,29.79,WSW,248,0.0,1.0,82,0.00,,,0.01,,2013-03-16 22:23:00,
2013-03-16 18:33:00,31.0,26.0,29.79,WSW,248,0.0,0.0,82,0.00,,,0.01,,2013-03-16 22:33:00,
2013-03-16 18:42:00,31.0,26.0,29.79,WSW,248,0.0,0.0,82,0.00,,,0.01,,2013-03-16 22:42:00,
2013-03-16 18:53:00,31.0,26.0,29.80,WSW,248,0.0,0.0,83,0.00,,,0.01,,2013-03-16 22:53:00,
2013-03-16 19:02:00,31.0,26.0,29.80,WSW,248,0.0,1.0,82,0.00,,,0.01,,2013-03-16 23:02:00,
2013-03-16 19:13:00,31.0,26.0,29.80,WSW,248,0.0,1.0,82,0.00,,,0.01,,2013-03-16 23:13:00,
2013-03-16 19:23:00,31.0,26.0,29.81,West,261,0.0,1.0,82,0.00,,,0.01,,2013-03-16 23:23:00,
2013-03-16 19:33:00,31.0,26.0,29.80,West,261,0.0,1.0,82,0.00,,,0.01,,2013-03-16 23:33:00,
2013-03-16 19:42:00,31.0,26.0,29.80,West,261,0.0,1.0,82,0.00,,,0.01,,2013-03-16 23:42:00,
2013-03-16 19:53:00,31.0,26.0,29.81,West,264,0.0,2.0,82,0.00,,,0.01,,2013-03-16 23:53:00,
2013-03-16 20:02:00,31.0,26.0,29.81,West,264,0.0,1.0,83,0.00,,,0.01,,2013-03-17 00:02:00,
2013-03-16 20:12:00,31.0,26.0,29.81,West,264,0.0,1.0,83,0.00,,,0.01,,2013-03-17 00:12:00,
2013-03-16 20:22:00,31.0,26.0,29.82,WNW,295,0.0,1.0,83,0.00,,,0.01,,2013-03-17 00:22:00,
2013-03-16 20:33:00,30.0,26.0,29.82,NNW,331,0.0,2.0,84,0.00,,,0.01,,2013-03-17 00:33:00,
2013-03-16 20:42:00,30.0,26.0,29.82,NNW,331,0.0,2.0,84,0.00,,,0.01,,2013-03-17 00:42:00,
2013-03-16 20:52:00,30.0,25.0,29.83,NW,318,0.0,3.0,83,0.00,,,0.01,,2013-03-17 00:52:00,
2013-03-16 21:02:00,30.0,25.0,29.83,NW,318,0.0,2.0,83,0.00,,,0.01,,2013-03-17 01:02:00,
2013-03-16 21:12:00,30.0,25.0,29.83,NW,318,0.0,2.0,83,0.00,,,0.01,,2013-03-17 01:12:00,
2013-03-16 21:22:00,30.0,25.0,29.84,NW,318,0.0,1.0,83,0.00,,,0.01,,2013-03-17 01:22:00,
2013-03-16 21:32:00,30.0,25.0,29.85,NW,318,0.0,1.0,83,0.00,,,0.01,,2013-03-17 01:32:00,
2013-03-16 21:42:00,30.0,25.0,29.85,NW,318,0.0,1.0,83,0.00,,,0.01,,2013-03-17 01:42:00,
2013-03-16 21:53:00,30.0,25.0,29.85,NW,318,0.0,0.0,83,0.00,,,0.01,,2013-03-17 01:53:00,
2013-03-16 22:03:00,30.0,25.0,29.85,NW,318,0.0,1.0,83,0.00,,,0.01,,2013-03-17 02:03:00,
2013-03-16 22:13:00,30.0,25.0,29.85,NW,318,0.0,1.0,83,0.00,,,0.01,,2013-03-17 02:13:00,
2013-03-16 22:22:00,30.0,26.0,29.86,NW,318,0.0,0.0,84,0.00,,,0.01,,2013-03-17 02:22:00,
2013-03-16 22:33:00,30.0,25.0,29.86,NW,318,0.0,1.0,83,0.00,,,0.01,,2013-03-17 02:33:00,
2013-03-16 22:43:00,30.0,25.0,29.86,NW,318,0.0,1.0,83,0.00,,,0.01,,2013-03-17 02:43:00,
2013-03-16 22:53:00,30.0,25.0,29.87,NW,318,0.0,1.0,83,0.00,,,0.01,,2013-03-17 02:53:00,
2013-03-16 23:03:00,30.0,25.0,29.88,NW,318,0.0,3.0,83,0.00,,,0.01,,2013-03-17 03:03:00,
2013-03-16 23:12:00,30.0,25.0,29.88,NW,318,0.0,3.0,83,0.00,,,0.01,,2013-03-17 03:12:00,
2013-03-16 23:23:00,30.0,25.0,29.88,NW,318,0.0,1.0,83,0.00,,,0.01,,2013-03-17 03:23:00,
2013-03-16 23:33:00,30.0,25.0,29.88,NW,318,0.0,2.0,83,0.00,,,0.01,,2013-03-17 03:33:00,
2013-03-16 23:43:00,30.0,25.0,29.88,NW,318,0.0,2.0,83,0.00,,,0.01,,2013-03-17 03:43:00,
2013-03-16 23:53:00,30.0,25.0,29.88,NW,318,0.0,0.0,83,0.00,,,0.01,,2013-03-17 03:53:00,